This is the latest recevied weather packets stored in our database for station/object WAYLND-WX. If no packets are shown the sender has not sent any weather packets the latest 10 day(s).
| Time | Temp. | Humidity | Pressure | Rain* | Wind** | Luminosity | Snow |
|---|---|---|---|---|---|---|---|
| 1778193941 | 11.11° C | 39% | 984.7 hPa | 0 mm | - | - | - |
| 1778193060 | 11.11° C | 39% | 984.7 hPa | 0 mm | - | - | - |
| 1778192144 | 11.67° C | 39% | 984.9 hPa | 0 mm | - | - | - |
| 1778191273 | 11.67° C | 39% | 984.9 hPa | 0 mm | - | - | - |
| 1778190347 | 11.67° C | 37% | 985.3 hPa | 0 mm | - | - | - |
| 1778189459 | 11.67° C | 37% | 985.6 hPa | 0 mm | - | - | - |
| 1778188546 | 11.67° C | 37% | 985.6 hPa | 0 mm | - | - | - |
| 1778187672 | 11.67° C | 37% | 985.6 hPa | 0 mm | - | - | - |
| 1778186743 | 11.67° C | 38% | 985.8 hPa | 0 mm | - | - | - |
| 1778185858 | 11.67° C | 38% | 985.4 hPa | 0 mm | - | - | - |
| 1778184944 | 11.67° C | 38% | 985.4 hPa | 0 mm | - | - | - |
| 1778184071 | 11.67° C | 38% | 985.4 hPa | 0 mm | - | - | - |
| 1778183146 | 11.67° C | 37% | 985.6 hPa | 0 mm | - | - | - |
| 1778182261 | 11.67° C | 37% | 985.6 hPa | 0 mm | - | - | - |
| 1778181347 | 11.67° C | 37% | 985.6 hPa | 0 mm | - | - | - |
| 1778180469 | 11.67° C | 37% | 985.6 hPa | 0 mm | - | - | - |
| 1778179547 | 11.67° C | 41% | 986.5 hPa | 0 mm | - | - | - |
| 1778178661 | 11.67° C | 40% | 986.3 hPa | 0 mm | - | - | - |
| 1778177747 | 11.11° C | 40% | 986.3 hPa | 0 mm | - | - | - |
| 1778176876 | 11.11° C | 40% | 986.3 hPa | 0 mm | - | - | - |
| 1778175944 | 10.56° C | 42% | 987 hPa | 0 mm | - | - | - |
| 1778175062 | 10.56° C | 40% | 987.2 hPa | 0 mm | - | - | - |
| 1778174147 | 10.56° C | 40% | 987.2 hPa | 0 mm | - | - | - |
| 1778173272 | 10.56° C | 40% | 987.2 hPa | 0 mm | - | - | - |
| 1778172347 | 10° C | 47% | 986.2 hPa | 0 mm | - | - | - |
* Rain latest hour (hover to see other rain measurements)
** Current wind speed in m/s (hover to see current wind gust speed)